Погода в Штормово

Украина / Луганская область     49°05′59″N   38°54′47″E
темп.,
°C
ветер,
м/с
пор.,
м/с
влажн.,
%
обл.,
%
осадки,
мм/ч
давл.,
гПа
погр.,
м
28 ноября, вс
вс2823:00+5ююв4119398 0.3 1010252
02:00+8ю5993100 0.3 1009290
05:00+7ю489698 0.0 1009203
08:00+7ю359723 0.0 1010103
11:00+10ююз35791 0.0 1010374
14:00+12ююв247012 0.0 1010195
17:00+9ююв3388100 0.0 101137
20:00+8юв3795100 0.0 1010138
29 ноября, пн
пн2923:00+8вюв4999100 4.4 1008259
02:00+10ююв81595100 12.7 1006762
05:00+11ю71495100 0.3 1005778
08:00+10ююз61295100 0.6 1006489
11:00+12ююз71484100 0.0 1005824
14:00+12ю61583100 0.8 1003813
17:00+12ю91788100 2.9 1000767
20:00+14ю122272100 4.3 9961008
30 ноября, вт
вт3023:00+14ююз122171100 0.8 9931013
02:00+12ююз122086100 0.9 9921198
05:00+11зюз1218712 0.4 9941186
08:00+7зюз9146698 0.4 999930
11:00+8зюз914553 0.0 1001984
14:00+8зюз7115038 0.0 1000939
17:00+5зюз3661100 0.0 1000155
20:00+4зсз2365100 0.0 998117
1 декабря, ср
ср123:00+3ссз4672100 0.1 996528
02:00+1ссз4995100 3.1 996557
05:00+1зсз61075100 1.0 998756
08:000з7128226 1.0 1002732
11:00+1зюз71168100 0.0 10031068
14:00+2юз61163100 0.0 10021201
17:00+1юз71497100 1.0 1002743
20:00+1зюз7129379 1.8 1003832
2 декабря, чт
чт223:00+2з71182100 0.1 1005896
02:00+1з6972100 0.1 1008881
05:00+2з6967100 0.0 1009792
08:00+2ююз5107589 0.0 1011463
11:00+4юз6127286 0.0 1011696
14:00+5юз71570100 0.0 1010731
17:00+4ююз715885 0.0 1011526
20:00+4ююз6158467 0.0 1011471